Hourly Data Report for April 27, 2020

TORONTO CITY
ONTARIO
Current Station Operator: ECCC - MSC

43°40'00.000" N
79°24'00.000" W
112.50 m
6158355
71508
XTO

Download Data

Hourly Data (April 2020)
Hourly Data Report for April 27, 2020
TIME
LST
Temp Definition
°C
Dew Point Definition
°C
Rel Hum Definition
%
Precip. Amount Definition
mm

Wind Dir Definition
10's deg

Wind Spd Definition
km/h
Visibility Definition
km
Stn Press Definition
kPa
Hmdx Definition


Wind Chill Definition


Weather Definition


00:00 9.6 -3.2 41 0.0       100.45     LegendNANA
01:00 10.0 -4.8 35 0.0       100.42     LegendNANA
02:00 9.0 -4.4 39 0.0       100.43     LegendNANA
03:00 7.3 -1.5 54 0.0       100.47     LegendNANA
04:00 6.5 -1.7 56 0.0       100.52     LegendNANA
05:00 6.8 -2.9 50 0.0       100.54     LegendNANA
06:00 5.7 -3.2 53 0.0       100.60     LegendNANA
07:00 7.7 -4.9 40 0.0       100.67     LegendNANA
08:00 9.8 -5.7 33 0.0       100.71     LegendNANA
09:00 11.3 -5.1 31 0.0       100.71     LegendNANA
10:00 12.4 -4.6 30 0.0       100.70     LegendNANA
11:00 12.5 -5.0 29 0.0       100.68     LegendNANA
12:00 11.3 -6.5 28 0.0       100.68     LegendNANA
13:00 12.0 -5.6 29 0.0       100.63     LegendNANA
14:00 11.8 -6.1 28 0.0       100.61     LegendNANA
15:00 12.5 -5.7 28 0.2       100.55     LegendNANA
16:00 11.9 -7.1 26 0.4       100.51     LegendNANA
17:00 12.8 -6.7 25 0.0       100.50     LegendNANA
18:00 11.5 -5.9 29 0.0       100.50     LegendNANA
19:00 11.2 -0.6 44 0.0       100.49     LegendNANA
20:00 10.3 -0.5 47 0.0       100.51     LegendNANA
21:00 10.1 -1.9 43 0.0       100.53     LegendNANA
22:00 9.2 -1.2 48 0.0       100.54     LegendNANA
23:00 8.8 -0.4 52 0.0       100.52     LegendNANA

Notes on Data Quality.

Legend

  • E = Estimated
  • M = Missing
  • NA = Not Available*
  • [empty] = Indicates an unobserved value
Date modified: